User: anonymous   Login
Location: Pensacola
(30.4142°N, 87.2155°W)
Time: 02:06:58
(UTC-05:00)
Language:

NANOSAT C BR1 - Orbit

View from above orbital plane
View from above orbital plane
View from above satellite
View from above satellite

Ground track
Ground track

The orbit data is extracted from the following two-line orbital elements,

1 40024U 14033Q   23160.69476066  .00006655  00000-0  60033-3 0  9994
2 40024  98.0282 115.6317 0009103 315.6124  44.4366 14.95853858487293
Epoch (UTC): 09 June 2023 16:40:27
Eccentricity: 0.0009103
inclination: 98.0282°
perigee height: 573 km
apogee height: 586 km
right ascension of ascending node: 115.6317°
argument of perigee: 315.6124°
revolutions per day: 14.95853858
mean anomaly at epoch: 44.4366°
orbit number at epoch: 48729

The dashed part of the orbit path shows where the satellite is in the earth's shadow,  

DLR